Flag for Poland Weather past 2 weeks in Wroclaw, Poland

Now
63 °F

Partly sunny.


Feels Like: 63 °F
Forecast: 51 / 75 °F
Wind: 5 mph from Southwest

Location: Wroclaw Ii

Current Time: Apr 26, 2015 at 11:00:49 AM

Latest Report: Apr 26, 2015 at 10:00 AM


Visibility: N/A

Pressure: 29.80 "Hg

Humidity: 77%

Dew point: 55 °F

Location of WroclawLocation

Historic Weather in Wroclaw — Graph

°F

Wroclaw temperature yesterday

Maximum temperature yesterday: 73 °F (at 1:00 PM)
Minimum temperature yesterday: 43 °F (at 4:00 AM)
Average temperature yesterday: 61 °F

Past Weeks' High & Low Weather Summary

 TemperatureHumidityPressure
High73 °F (Apr 11, 3:00 PM)94% (Apr 26, 6:30 AM)30.45 "Hg (Apr 26, 6:30 AM)
Low32 °F (Apr 19, 5:30 AM)20% (Apr 21, 3:00 PM)29.77 "Hg (Apr 25, 4:30 PM)
Average54 °F55%30.08 "Hg
* Reported Apr 11 10:00 AM — Apr 26 10:00 AM, Wroclaw, Weather by CustomWeather, © 2015

Note: Actual official high and low records may vary slightly from our data, if they occured in-between our weather recording intervals... More about our weather records

Advertising

Wroclaw weather history for previous 24 hours

 ConditionsComfort  
Time TempWeatherWind HumidityBarometerVisibility
10:00 AM
Sun, Apr 26
63 °FPartly sunny.5 mph77%29.80 "HgN/A
9:30 AM61 °FPartly sunny.6 mph83%29.80 "HgN/A
9:00 AM59 °FPartly sunny.3 mph88%29.80 "HgN/A
8:30 AM59 °FPartly sunny.5 mph88%29.80 "HgN/A
8:00 AM57 °FPartly sunny.2 mph88%29.80 "HgN/A
7:30 AM57 °FPartly sunny.5 mph88%29.80 "HgN/A
7:00 AM55 °FPartly sunny.3 mph94%29.80 "HgN/A
6:30 AM55 °FLight rain. Passing clouds.3 mph94%29.80 "HgN/A
6:00 AM57 °FLight rain. Passing clouds.3 mph88%29.80 "HgN/A
5:30 AM57 °FLight rain. Clear.3 mph88%29.80 "HgN/A
5:00 AM57 °FLight rain. Clear.3 mph88%29.80 "HgN/A
4:30 AM59 °FLight rain. Clear.5 mph77%29.80 "HgN/A
4:00 AM59 °FLight rain. Passing clouds.6 mph77%29.80 "HgN/A
3:30 AM59 °FLight rain. Passing clouds.6 mph72%29.80 "HgN/A
3:00 AM61 °FLight rain. Passing clouds.6 mph68%29.80 "HgN/A
2:30 AM61 °FLight rain. Passing clouds.5 mph63%29.77 "HgN/A
2:00 AM63 °FLight rain. Passing clouds.6 mph59%29.80 "HgN/A
1:30 AM64 °FLight rain. Passing clouds.6 mph52%29.77 "HgN/A
1:00 AM63 °FLight rain. Passing clouds.3 mph56%29.80 "HgN/A
12:30 AM64 °FLight rain. Passing clouds.5 mph49%29.80 "HgN/A
12:00 AM64 °FLight rain. Passing clouds.6 mph43%29.80 "HgN/A
11:00 PM
Sat, Apr 25
64 °FLight rain. Passing clouds.5 mph43%29.80 "HgN/A
10:30 PM64 °FLight rain. Passing clouds.6 mph43%29.80 "HgN/A
10:00 PM63 °FClear.1 mph42%29.77 "Hg10 mi
9:30 PM63 °FClear.2 mph42%29.77 "Hg10 mi
9:00 PM64 °FSunny.3 mph40%29.77 "Hg10 mi
8:30 PM66 °FSunny.3 mph37%29.77 "Hg10 mi
8:00 PM68 °FPassing clouds.3 mph33%29.77 "HgN/A
7:30 PM70 °FSunny.5 mph31%29.77 "Hg10 mi
7:00 PM70 °FSunny.5 mph31%29.77 "Hg10 mi
6:30 PM72 °FPassing clouds.5 mph25%29.77 "HgN/A
6:00 PM72 °FPassing clouds.7 mph27%29.77 "HgN/A
5:30 PM73 °FPassing clouds.8 mph23%29.77 "HgN/A
5:00 PM73 °FPassing clouds.12 mph23%29.77 "HgN/A
4:30 PM73 °FPassing clouds.10 mph25%29.77 "HgN/A
4:00 PM73 °FPassing clouds.8 mph27%29.80 "HgN/A
3:30 PM73 °FPassing clouds.10 mph27%29.80 "HgN/A
3:00 PM73 °FPassing clouds.8 mph27%29.80 "HgN/A
2:30 PM73 °FSunny.7 mph27%29.83 "Hg10 mi
2:00 PM73 °FPassing clouds.9 mph29%29.83 "HgN/A
1:30 PM73 °FPassing clouds.8 mph31%29.83 "HgN/A
1:00 PM73 °FPassing clouds.12 mph29%29.86 "HgN/A
12:30 PM72 °FSunny.8 mph31%29.86 "Hg10 mi
12:00 PM72 °FPassing clouds.9 mph33%29.86 "HgN/A
11:30 AM72 °FPassing clouds.8 mph31%29.86 "HgN/A
11:00 AM70 °FPassing clouds.7 mph38%29.89 "HgN/A
Weather by CustomWeather, © 2015

See weather overviewHow to use our weather pages